{"data":{"norad_id":58621,"intl_designator":"2023-203D","name":"STARLINK-31134","alt_names":[],"object_type":"PAYLOAD","status":"ACTIVE","operator":null,"country":"US","launch_date":"2023-12-23","launch_site_code":"AFETR","launch_vehicle":null,"mission":null,"orbit_class":"UNKNOWN","rcs_meters":null,"size_class":null,"mass_kg":null,"dimensions":null,"purposes":["comms"],"wikipedia_slug":null,"has_3d_model":false,"image_url":null,"decayed_at":null,"tle_current":{"epoch":"2026-09-20T03:08:46.817088Z","epoch_age_seconds":181771,"freshness":"STALE","line1":"1 58621U 23203D   26263.13109742 -.00000291  00000+0 -10294-5 0  9992","line2":"2 58621  43.0060  49.4223 0001471 271.8643  88.2041 15.27574649153298","mean_motion":15.27574649,"eccentricity":0.0001471,"inclination_deg":43.006,"raan_deg":49.4223,"arg_perigee_deg":271.8643,"mean_anomaly_deg":88.2041,"bstar":-1.0294e-6,"rev_number":15329,"period_min":94.267078924272,"perigee_km":482.05583607375,"apogee_km":484.07440173713,"semimajor_km":6861.2021189054,"source":"CELESTRAK","updated_at":"2026-09-21T09:00:33.922024Z"}}}